星链-32630 (STARLINK-32630)

导读

STARLINK-32630是美国SpaceX星链星座的卫星,于2024年11月21日发射升空,星链项目旨在为全球提供高速卫星互联网服务,这类低轨卫星依靠星座组网实现全球覆盖,该卫星加入后进一步扩展了星链星座的服务能力,完善低轨互联网星座的覆盖范围与服务稳定性。

Basic Information
目录编号:
62047
目录名称:
STARLINK-32630
国际标识:
2024-216R
轨道中心:
EARTH
卫星名称:
星链-32630
卫星全名:
星链-32630 (STARLINK-32630)
卫星状态:
在轨 (已飞行660 天)
发射日期:
2024-11-21 UTC
国别 :
美国 (US)
星等 :
--
This satellite is enrolled in the Space Conjunction Data Service (SCDS) and the current flight risk assessment level is: High Risk
Orbit Information
数据来源 国际轨道数据 AOE轨道数据
星历时间 2026-09-11T20:42:22+0800
19小时前
查看轨道信息
2026-09-09T06:00:00+0800
3天前
查看轨道信息
半长轴 6861.134km 6861.205km
偏心率 0.0001162 0.0001508
轨道倾角 43.000° 43.001°
近地点辐角 268.335° 258.827°
升交点赤经 294.046° 308.803°
平近点角 91.737° 116.242°
近地点 482.199km 482.033km
远地点 483.795km 484.103km
周期 94.266分钟 94.267分钟
每日圈数 15.275976 15.275738
Detailed Information
固有亮度:
5
最大亮度:
2.5
卫星平台:
Starlink V1.0
覆盖范围:
全球
运营商:
太空探索技术公司
运营商所在国:
美国
制造商(研发单位):
太空探索技术公司
制造商所在国:
美国
使用方式:
暂无
Satellite Introduction
Starlink 计划是 SpaceX 推出的全球卫星互联网项目,通过发射低轨道卫星,为全球尤其是偏远地区提供高速、低延迟的互联网服务。自 2019 年起,Starlink 已部署数千颗卫星,旨在缩小全球数字鸿沟,推动互联网普及。该项目还为军事、航空等行业提供通信支持,带来广泛经济效益。
2D Orbit Map
3D Orbit Map
Orbit Altitude Analysis Chart
Orbit Inclination Analysis Chart
Orbit Comprehensive Analysis Chart
View Comprehensive Chart
Conjunction Data List
Event ID Objects TCA Miss Dist (km) Collision Risk Probability Collision Risk Index (CRI) Action
CDM_260914-054405-847706-204721
2026-09-14T
05:44:08+0000
0.514 km
远距离
1.522039E-4 高风险 0.79
CDM_260912-201605-718606-204721
OBJECT W (57186)
2026-09-12T
20:16:11+0000
0.538 km
远距离
1.186729E-4 高风险 0.76
CDM_260914-043705-886506-204721
2026-09-14T
04:37:38+0000
0.910 km
远距离
7.720601E-6 低风险 0.53
CDM_260914-052405-886506-204721
2026-09-14T
05:24:43+0000
1.337 km
极远距离
2.148484E-6 低风险 0.42
CDM_260914-071805-847706-204721
2026-09-14T
07:18:17+0000
2.079 km
极远距离
2.038258E-6 低风险 0.41
CDM_260914-065805-886506-204721
2026-09-14T
06:58:52+0000
2.170 km
极远距离
6.212267E-7 极低风险 0.31
CDM_260914-030305-886506-204721
2026-09-14T
03:03:29+0000
2.373 km
极远距离
5.312607E-7 极低风险 0.3
Miss Distance Evolution Trend with All Objects
Collision Probability Evolution Trend with All Objects